Location: Rancho Del Sol Observatory
(38.7214°N, 120.6350°W)
Time: 04:25:23
(UTC-08:00)

A-11 Canister half - Pass Details

Date: 01 February 2020
Orbit: 1517 x 1683 km, 47.2° (Epoch: 19 February)

Event Time Altitude Azimuth Distance (km) Brightness Sun altitude
Exits shadow 04:23:49 62° 219° (SW) 1,673 8.9 -32.4°
Drops below altitude 10° 04:32:55 10° 142° (SE) 3,700 11.4 -30.6°
Sets 04:36:01 0° 139° (SE) 4,698 12.1 -30.0°
